Location: Julian California
(33.0790°N, 116.6010°W)
Time: 05:42:29
(UTC-07:00)

ERS-1 Rocket - Pass Details

Date: 19 May 2017
Orbit: 753 x 758 km, 98.6° (Epoch: 22 July)

Event Time Altitude Azimuth Distance (km) Brightness Sun altitude
Exits shadow 21:21:32 34° 143° (SE) 1,233 3.5 -18.4°
Maximum altitude 21:23:39 63° 75° (ENE) 835 3.0 -18.7°
Drops below altitude 10° 21:28:36 10° 354° (N) 2,280 6.1 -19.5°
Sets 21:30:55 0° 352° (N) 3,209 7.0 -19.9°
